Terminal Aerodrome Forecast
Issued by NWS Upton, NY

Home | Current Version | Previous Version | Text Only | Print | Product List | Glossary On
Versions: 1 2 3 4 5 6 7 8 9 10 11 12 13 14 15 16 17 18 19 20 21 22 23 24 25 26 27
000
FTUS41 KOKX 220200 AAA
TAFJFK
TAF AMD
KJFK 220235Z 2203/2306 36007KT P6SM SCT015 OVC025
      TEMPO 2203/2204 -SNRA BKN015
     FM220400 36005KT P6SM OVC015
     FM221200 03007KT P6SM BKN015 OVC025
     FM221600 06006KT 6SM -RA BKN010 OVC020
     FM222000 07007KT 6SM -RA BR BKN008=

USA.gov is the U.S. government's official web portal to all federal, state and local government web resources and services.